Weather History for KSME - March, 2013

Change the Weather History Date:

Saturday, March 2, 2013

  Actual Average Record
Temperature  
Mean Temperature 30 °F -  
Max Temperature 32 °F 53 °F 129 °F (2008)
Min Temperature 28 °F 32 °F 19 °F (2005)
Degree Days  
Heating Degree Days 35    
Moisture  
Dew Point 25 °F    
Average Humidity 80    
Maximum Humidity 100    
Minimum Humidity 60    
Precipitation  
Precipitation 0.00 in - - ()
Sea Level Pressure  
Sea Level Pressure 30.03 in    
Wind  
Wind Speed 6 mph (NNW)    
Max Wind Speed 15 mph    
Max Gust Speed 18 mph    
Visibility 8 miles    
Events Snow    
Averages and records for this station are not official NWS values.
T = Trace of Precipitation, MM = Missing Value Source: NWS Daily Summary

Daily Weather History Graph

Daily Weather History Graph

Search for Another Location

Airport or City:

Trip Planner

Search our weather history database for the weather conditions in past years. The results will help you decide how hot, cold, wet, or windy it might be!

Date:

Astronomy

Mar. 02, 2013 Rise Set
Actual Time 7:07 AM EST 6:33 PM EST
Civil Twilight 6:41 AM EST 6:59 PM EST
Nautical Twilight 6:11 AM EST 7:30 PM EST
Astronomical Twilight 5:41 AM EST 8:00 PM EST
Moon No Moon Rise 9:43 AM EST (3/2)
Length of Visible Light 12h 18m
Length of Day
11h 26m
Waning Gibbous, 74% of the Moon is Illuminated
Mar 2
Waning Gibbous
Mar 4
Last Quarter
Mar 11
New
Mar 19
First Quarter
Mar 27
Full

Hourly Weather History & Observations

Time (EST) Temp. Windchill Dew Point Humidity Pressure Visibility Wind Dir Wind Speed Gust Speed Precip Events Conditions
12:35 AM 32.0 °F 28.7 °F 32.0 °F 100% 30.00 in 4.0 mi NNW 3.5 mph - N/A   Overcast
12:55 AM 32.0 °F 28.7 °F 32.0 °F 100% 30.00 in 3.0 mi NW 3.5 mph - N/A Snow Light Snow
1:15 AM 32.0 °F 28.7 °F 32.0 °F 100% 29.99 in 3.0 mi WNW 3.5 mph - N/A Snow Light Snow
1:35 AM 32.0 °F 28.7 °F 32.0 °F 100% 29.99 in 4.0 mi WNW 3.5 mph - N/A Snow Light Snow
1:55 AM 32.0 °F 27.5 °F 32.0 °F 100% 29.99 in 7.0 mi WNW 4.6 mph - N/A Snow Light Snow
2:15 AM 32.0 °F 28.7 °F 32.0 °F 100% 29.99 in 5.0 mi NW 3.5 mph - N/A Snow Light Snow
2:35 AM 32.0 °F 28.7 °F 32.0 °F 100% 29.99 in 4.0 mi WNW 3.5 mph - N/A Snow Light Snow
2:55 AM 32.0 °F 28.7 °F 32.0 °F 100% 29.98 in 3.0 mi West 3.5 mph - N/A Snow Light Snow
3:15 AM 32.0 °F 27.5 °F 32.0 °F 100% 29.98 in 4.0 mi West 4.6 mph - N/A Snow Light Snow
3:35 AM 32.0 °F 28.7 °F 32.0 °F 100% 29.97 in 7.0 mi WNW 3.5 mph - N/A   Overcast
3:55 AM 32.0 °F 27.5 °F 32.0 °F 100% 29.97 in 5.0 mi WNW 4.6 mph - N/A Snow Light Snow
4:15 AM 32.0 °F 27.5 °F 32.0 °F 100% 29.96 in 1.5 mi WNW 4.6 mph - N/A Snow Light Snow
4:35 AM 32.0 °F 25.6 °F 32.0 °F 100% 29.97 in 2.0 mi NNW 6.9 mph - N/A Snow Light Snow
4:55 AM 32.0 °F 25.6 °F 32.0 °F 100% 29.97 in 7.0 mi North 6.9 mph - N/A   Overcast
5:15 AM 32.0 °F 23.6 °F 30.2 °F 93% 29.97 in 10.0 mi NE 10.4 mph - N/A   Overcast
5:35 AM 32.0 °F 25.6 °F 28.4 °F 87% 29.98 in 10.0 mi NNE 6.9 mph - N/A   Overcast
5:55 AM 32.0 °F 21.6 °F 28.4 °F 87% 29.98 in 10.0 mi NNE 15.0 mph 18.4 mph N/A Snow Light Snow
6:15 AM 32.0 °F 23.0 °F 28.4 °F 87% 29.98 in 10.0 mi NNE 11.5 mph - N/A   Overcast
6:35 AM 32.0 °F 23.6 °F 28.4 °F 87% 29.98 in 7.0 mi NNE 10.4 mph - N/A Snow Light Snow
6:55 AM 32.0 °F 25.6 °F 28.4 °F 87% 29.99 in 10.0 mi NNE 6.9 mph - N/A Snow Light Snow
7:15 AM 30.2 °F 22.6 °F 28.4 °F 93% 30.00 in 7.0 mi NNE 8.1 mph - N/A Snow Light Snow
7:35 AM 30.2 °F 25.4 °F 28.4 °F 93% 30.01 in 4.0 mi NNE 4.6 mph - N/A Snow Light Snow
7:55 AM 30.2 °F 22.6 °F 28.4 °F 93% 30.01 in 2.0 mi NNE 8.1 mph - N/A Snow Light Snow
8:15 AM 30.2 °F 24.3 °F 28.4 °F 93% 30.02 in 1.5 mi North 5.8 mph - N/A Snow Light Snow
8:35 AM 30.2 °F 22.6 °F 28.4 °F 93% 30.02 in 1.8 mi NNE 8.1 mph - N/A Snow Light Snow
8:55 AM 30.2 °F 20.8 °F 28.4 °F 93% 30.03 in 2.0 mi North 11.5 mph - N/A Snow Light Snow
9:15 AM 30.2 °F 23.4 °F 26.6 °F 86% 30.03 in 3.0 mi NNE 6.9 mph - N/A Snow Light Snow
9:35 AM 30.2 °F 21.9 °F 24.8 °F 80% 30.03 in 10.0 mi North 9.2 mph - N/A   Overcast
9:55 AM 32.0 °F 24.2 °F 24.8 °F 75% 30.03 in 10.0 mi North 9.2 mph - N/A   Overcast
10:15 AM 32.0 °F 24.2 °F 23.0 °F 69% 30.03 in 10.0 mi North 9.2 mph - N/A   Overcast
10:35 AM 32.0 °F 26.4 °F 23.0 °F 69% 30.04 in 10.0 mi North 5.8 mph - N/A   Mostly Cloudy
10:55 AM 32.0 °F 27.5 °F 24.8 °F 75% 30.04 in 10.0 mi North 4.6 mph - N/A   Overcast
11:15 AM 32.0 °F 24.2 °F 24.8 °F 75% 30.04 in 10.0 mi NNW 9.2 mph - N/A   Overcast
11:35 AM 32.0 °F 25.6 °F 23.0 °F 69% 30.05 in 10.0 mi NNW 6.9 mph - N/A   Overcast
11:55 AM 32.0 °F 22.5 °F 23.0 °F 69% 30.05 in 10.0 mi North 12.7 mph - N/A   Overcast
12:15 PM 32.0 °F 23.0 °F 23.0 °F 69% 30.05 in 10.0 mi North 11.5 mph 16.1 mph N/A   Overcast
12:35 PM 32.0 °F 25.6 °F 23.0 °F 69% 30.05 in 10.0 mi NW 6.9 mph - N/A   Overcast
12:55 PM 32.0 °F 23.6 °F 23.0 °F 69% 30.04 in 10.0 mi North 10.4 mph - N/A   Overcast
1:15 PM 32.0 °F 23.6 °F 23.0 °F 69% 30.04 in 10.0 mi NW 10.4 mph - N/A   Overcast
1:35 PM 32.0 °F 23.0 °F 23.0 °F 69% 30.04 in 10.0 mi NW 11.5 mph - N/A   Overcast
1:55 PM 32.0 °F 23.6 °F 21.2 °F 64% 30.03 in 10.0 mi NNW 10.4 mph - N/A   Overcast
2:15 PM 32.0 °F 24.2 °F 21.2 °F 64% 30.03 in 10.0 mi NNW 9.2 mph 16.1 mph N/A   Overcast
2:35 PM 32.0 °F 23.6 °F 19.4 °F 60% 30.03 in 10.0 mi WNW 10.4 mph 17.3 mph N/A   Overcast
2:55 PM 32.0 °F 23.6 °F 21.2 °F 64% 30.04 in 10.0 mi NNW 10.4 mph 17.3 mph N/A   Overcast
3:15 PM 30.2 °F 21.9 °F 24.8 °F 80% 30.04 in 3.0 mi NNW 9.2 mph - N/A Snow Light Snow
3:35 PM 32.0 °F 24.8 °F 24.8 °F 75% 30.04 in 5.0 mi North 8.1 mph - N/A Snow Light Snow
3:55 PM 32.0 °F 24.2 °F 24.8 °F 75% 30.04 in 5.0 mi NNW 9.2 mph - N/A Snow Light Snow
4:15 PM 32.0 °F 24.2 °F 23.0 °F 69% 30.05 in 10.0 mi NW 9.2 mph - N/A Snow Light Snow
4:35 PM 32.0 °F 24.8 °F 23.0 °F 69% 30.05 in 5.0 mi North 8.1 mph - N/A Snow Light Snow
4:55 PM 32.0 °F 22.5 °F 21.2 °F 64% 30.05 in 10.0 mi NNW 12.7 mph 18.4 mph N/A   Overcast
5:15 PM 32.0 °F 26.4 °F 21.2 °F 64% 30.06 in 10.0 mi NNW 5.8 mph - N/A   Overcast
5:35 PM 30.2 °F 21.9 °F 21.2 °F 69% 30.06 in 10.0 mi North 9.2 mph - N/A   Overcast
5:55 PM 30.2 °F 25.4 °F 21.2 °F 69% 30.06 in 10.0 mi North 4.6 mph - N/A   Overcast
6:35 PM 30.2 °F 23.4 °F 21.2 °F 69% 30.08 in 10.0 mi North 6.9 mph - N/A   Overcast
6:55 PM 30.2 °F 25.4 °F 21.2 °F 69% 30.08 in 10.0 mi North 4.6 mph - N/A Snow Light Snow
7:15 PM 30.2 °F 24.3 °F 21.2 °F 69% 30.08 in 10.0 mi NNW 5.8 mph - N/A   Overcast
7:55 PM 30.2 °F 21.9 °F 23.0 °F 75% 30.09 in 10.0 mi NNW 9.2 mph - N/A Snow Light Snow
8:15 PM 30.2 °F 23.4 °F 23.0 °F 75% 30.09 in 7.0 mi NNW 6.9 mph - N/A Snow Light Snow
8:35 PM 30.2 °F 24.3 °F 23.0 °F 75% 30.10 in 10.0 mi NNW 5.8 mph - N/A   Overcast
8:55 PM 30.2 °F 25.4 °F 23.0 °F 75% 30.10 in 10.0 mi NNW 4.6 mph - N/A Snow Light Snow
9:15 PM 30.2 °F 25.4 °F 23.0 °F 75% 30.10 in 10.0 mi NNW 4.6 mph - N/A   Overcast
9:35 PM 30.2 °F 25.4 °F 23.0 °F 75% 30.10 in 10.0 mi NNW 4.6 mph - N/A   Overcast
9:55 PM 30.2 °F 22.6 °F 21.2 °F 69% 30.10 in 10.0 mi NNW 8.1 mph - N/A   Overcast
10:15 PM 30.2 °F 21.3 °F 19.4 °F 64% 30.10 in 10.0 mi North 10.4 mph - N/A   Overcast
10:35 PM 30.2 °F 23.4 °F 17.6 °F 60% 30.10 in 10.0 mi North 6.9 mph - N/A   Overcast
10:55 PM 28.4 °F 20.4 °F 17.6 °F 64% 30.10 in 10.0 mi NNW 8.1 mph - N/A   Overcast
11:15 PM 28.4 °F 21.2 °F 19.4 °F 69% 30.10 in 10.0 mi NNW 6.9 mph - N/A   Overcast
11:35 PM 28.4 °F 24.6 °F 19.4 °F 69% 30.10 in 10.0 mi NNW 3.5 mph - N/A   Overcast
11:55 PM 28.4 °F 22.2 °F 19.4 °F 69% 30.10 in 10.0 mi NNW 5.8 mph - N/A   Overcast